Zurück zum Katalog

DELTA 1 DEB

AktivLEO
NORAD 10478·DEBRIS·🇺🇸 United States

Gestartet Jul 14, 1977 von Cape Canaveral Space Force Station

Loading…

Nächste Überflüge (nächste 24 Stunden)

TLE

AktuellSource: Space-Track

Epoche: Sep 14, 2026, 13:27 UTC

1 10478U 77065EL  26257.56060297  .00002839  00000-0  32748-3 0  9991
2 10478  29.2549  72.1404 0422040 274.1595  81.0878 14.35169847450498

Verfolge DELTA 1 DEB in Echtzeit mit AllMySat

Download on the App Store